Regional Weather Roundup
Issued by NWS

Home | Current Version | Previous Version | Graphics & Text | Print | Product List | Glossary On
Versions: 1 2 3 4 5 6 7 8 9 10 11 12 13 14 15 16 17 18 19 20 21 22 23 24 25 26 27 28 29 30 31 32 33 34 35 36 37 38 39 40 41 42 43 44 45 46 47 48 49 50
000
ASUS43 KBIS 191659
RWRND

NORTH DAKOTA REGIONAL WEATHER ROUNDUP
NATIONAL WEATHER SERVICE BISMARCK ND
1200 PM CDT FRI SEP 19 2014

NOTE: "FAIR" INDICATES FEW OR NO CLOUDS BELOW 12,000 FEET WITH NO
SIGNIFICANT WEATHER AND/OR OBSTRUCTIONS TO VISIBILITY.


NDZ001>003-009>011-017-191800-
NORTHWEST NORTH DAKOTA

CITY           SKY/WX    TMP DP  RH WIND       PRES   REMARKS
WILLISTON      MOSUNNY   77  47  34 W26G36    29.63S
MINOT          SUNNY     77  50  38 W14       29.57S
$$

NDZ018>021-031>035-040>046-191800-
SOUTHWEST NORTH DAKOTA

CITY           SKY/WX    TMP DP  RH WIND       PRES   REMARKS
BISMARCK       MOSUNNY   77  58  51 W9G21     29.64S
DICKINSON      SUNNY     75  49  39 W20       29.71R
GARRISON         N/A     77  51  40 NW18G25   29.61S
HETTINGER ARPT SUNNY     76  53  44 W14       29.76R
$$

NDZ004>008-012>016-024-026-027-054-191800-
NORTHEAST NORTH DAKOTA

CITY           SKY/WX    TMP DP  RH WIND       PRES   REMARKS
GRAND FORKS    LGT RAIN  66  63  90 S7        29.57R
DEVILS LAKE    PTSUNNY   70  61  73 SW8       29.53R
$$

NDZ022-023-025-028>030-036>039-047>053-191800-
SOUTHEAST NORTH DAKOTA

CITY           SKY/WX    TMP DP  RH WIND       PRES   REMARKS
FARGO          LGT RAIN  67  61  81 S15       29.60F
$$




USA.gov is the U.S. government's official web portal to all federal, state and local government web resources and services.